{"data":{"norad_id":63259,"epoch":"2026-05-25T03:10:25.598208Z","epoch_age_seconds":60029,"freshness":"FRESH","line1":"1 63259U 25052BB  26145.13224072  .00003262  00000+0  28542-3 0  9994","line2":"2 63259  97.6957  38.2401 0002208 116.5293 243.6155 14.97412683 65245","mean_motion":14.97412683,"eccentricity":0.0002208,"inclination_deg":97.6957,"raan_deg":38.2401,"arg_perigee_deg":116.5293,"mean_anomaly_deg":243.6155,"bstar":0.00028542,"rev_number":6524,"period_min":96.165874401105,"perigee_km":573.35883689155,"apogee_km":576.42929541036,"semimajor_km":6953.031066151,"source":"CELESTRAK","updated_at":"2026-05-25T13:38:13.539323Z"}}